Flag for Germany Weather past 2 weeks in Porta Westfalica, North Rhine-Westphalia, Germany

Now
57 °F

Rain. Partly sunny.


Feels Like: 55 °F
Forecast: 53 / 64 °F
Wind: 10 mph from South

Location: Bueckeburg

Current Time: May 3, 2015 at 9:01:14 PM

Latest Report: May 3, 2015 at 8:20 PM


Visibility: 4 mi

Pressure: 29.59 "Hg

Humidity: 94%

Dew point: 55 °F

Location of Porta WestfalicaLocation

Historic Weather in Porta Westfalica — Graph

°F

Porta Westfalica temperature yesterday

Maximum temperature yesterday: 57 °F (at 4:20 PM)
Minimum temperature yesterday: 36 °F (at 5:20 AM)
Average temperature yesterday: 47 °F

Past Weeks' High & Low Weather Summary

 TemperatureHumidityPressure
High68 °F (Apr 24, 4:20 PM)100% (Apr 23, 7:20 AM)30.45 "Hg (Apr 23, 7:20 AM)
Low30 °F (Apr 28, 5:20 AM)28% (Apr 21, 3:20 PM)29.59 "Hg (May 3, 5:20 PM)
Average50 °F70%29.98 "Hg
* Reported Apr 18 7:20 PM — May 3 7:20 PM, Porta Westfalica, Weather by CustomWeather, © 2015

Note: Actual official high and low records may vary slightly from our data, if they occured in-between our weather recording intervals... More about our weather records

Advertising

Porta Westfalica weather history for previous 24 hours

 ConditionsComfort  
Time TempWeatherWind HumidityBarometerVisibility
7:20 PM
Sun, May 3
57 °FRain. Mostly cloudy.9 mph94%29.59 "Hg4 mi
6:20 PM59 °FRain. Mostly cloudy.9 mph82%29.59 "Hg4 mi
5:20 PM61 °FPartly sunny.14 mph68%29.59 "HgN/A
4:20 PM61 °FPartly sunny.14 mph68%29.62 "HgN/A
3:20 PM63 °FPartly sunny.16 mph64%29.62 "HgN/A
2:20 PM64 °FPartly sunny.13 mph56%29.65 "HgN/A
1:20 PM64 °FPartly sunny.14 mph56%29.68 "HgN/A
12:20 PM63 °FPartly sunny.14 mph59%29.68 "HgN/A
11:20 AM61 °FPartly sunny.10 mph55%29.71 "HgN/A
10:20 AM59 °FPartly sunny.12 mph55%29.74 "HgN/A
9:20 AM55 °FBroken clouds.8 mph63%29.74 "HgN/A
8:20 AM52 °FPartly sunny.2 mph67%29.77 "HgN/A
7:20 AM45 °FScattered clouds.2 mph71%29.77 "HgN/A
6:20 AM39 °FPassing clouds.3 mph81%29.77 "HgN/A
5:20 AM41 °FPassing clouds.3 mph76%29.77 "HgN/A
4:20 AM41 °FPassing clouds.3 mph76%29.80 "HgN/A
3:20 AM45 °FPassing clouds.1 mph66%29.80 "HgN/A
2:20 AM45 °FPassing clouds.6 mph66%29.83 "HgN/A
1:20 AM46 °FPassing clouds.6 mph57%29.86 "HgN/A
12:20 AM46 °FPassing clouds.5 mph62%29.86 "HgN/A
11:20 PM
Sat, May 2
46 °FPassing clouds.3 mph62%29.86 "HgN/A
10:20 PM48 °FPassing clouds.1 mph58%29.89 "HgN/A
9:20 PM50 °FScattered clouds.3 mph54%29.89 "HgN/A
Weather by CustomWeather, © 2015

See weather overviewHow to use our weather pages